"Pseudo-MPEC" for X82579

Created 2024 Sep 6 12:22:33 UT using Find_Orb

Click here for an explanation of pseudo-MPECs

 
 Astrometry: 
     X82579 * C2024 08 16.67115 22 18 11.86 +18 43 47.4    ~8HCb 19.4 RVNEOCPD29
     X82579   C2024 08 16.68530 22 18 12.89 +18 43 56.0    ~8HCb 21.3 RVNEOCPD29
     X82579   C2024 08 16.69944 22 18 13.88 +18 44 06.2    ~8HCb 20.5 RVNEOCPD29

Station data:
(D29) Purple Mountain Observatory, XuYi Station  (N32.734363 E118.463900)
   China.  Observers H. B. Zhao, B. Li, G. Zhaori, R. Q. Hong, L. F. Hu.
   Measurers H. B. Zhao, B. Li. H. Lu, G. Zhaori. 1.04-m f/1.8 Schmidt + CCD.

Orbital elements:  X82579
   Perihelion 2024 Oct 22.41102 +/- 39.1 TT =  9:51:52 (JD 2460605.91102)
Epoch 2024 Aug 17.0 TT = JDT 2460539.5   Earth MOID: 0.0090   Ma: 0.0718
M 333.52408721 +/- 24               (J2000 ecliptic)             AutoNEOCP
n   0.39866745 +/- 0.328            Peri.  241.47061 +/- 80
a   1.82836204 +/- 1                Node   167.16131 +/- 54
e   0.5430660 +/- 0.25              Incl.   13.54719 +/- 7
P   2.472/902.991d         H 22.50  G  0.15   U 12.0  SR
q 0.83544068 +/- 0.303    Q 2.82128340 +/- 48.7
From 3 observations 2024 Aug. 16 (40.7 min); mean residual 0".30
Residuals in arcseconds: 
240816 D29  .09-  .28+    240816 D29  .18+  .56-    240816 D29  .09-  .28+    

Ephemerides (geocentric):
Date (UTC) HH   RA             Dec           delta  r     elong  mag " sig PA
---- --------  ------------   ------------  ------ ------ -----  --- --------
2024 09 06 12  01 19 46.459   +20 41 21.16  .03807 1.0359 136.6 17.1  71d  77
2024 09 06 13  01 21 34.896   +20 37 45.15  .03784 1.0356 136.3 17.1  71d  77
2024 09 06 14  01 23 24.575   +20 34 02.09  .03761 1.0353 136.0 17.1  71d  77
2024 09 06 15  01 25 15.503   +20 30 11.80  .03738 1.0350 135.7 17.1  71d  77
2024 09 06 16  01 27 07.687   +20 26 14.12  .03715 1.0347 135.5 17.1  71d  77
2024 09 06 17  01 29 01.134   +20 22 08.88  .03693 1.0344 135.2 17.1  71d  77
2024 09 06 18  01 30 55.849   +20 17 55.92  .03671 1.0341 134.9 17.1  71d  77
2024 09 06 19  01 32 51.838   +20 13 35.05  .03649 1.0338 134.5 17.1  71d  77
2024 09 06 20  01 34 49.104   +20 09 06.12  .03627 1.0335 134.2 17.1  71d  77
2024 09 06 21  01 36 47.652   +20 04 28.95  .03605 1.0331 133.9 17.1  71d  77
2024 09 06 22  01 38 47.486   +19 59 43.37  .03584 1.0328 133.6 17.1  71d  77
2024 09 06 23  01 40 48.608   +19 54 49.21  .03563 1.0325 133.3 17.1  71d  77
2024 09 07 00  01 42 51.019   +19 49 46.29  .03542 1.0322 132.9 17.1  71d  77
2024 09 07 01  01 44 54.721   +19 44 34.45  .03522 1.0319 132.6 17.1  71d  77
2024 09 07 02  01 46 59.714   +19 39 13.52  .03502 1.0316 132.2 17.0  71d  77
2024 09 07 03  01 49 05.997   +19 33 43.32  .03482 1.0313 131.9 17.0  71d  77
2024 09 07 04  01 51 13.570   +19 28 03.70  .03462 1.0310 131.5 17.0  71d  77
2024 09 07 05  01 53 22.429   +19 22 14.48  .03443 1.0307 131.2 17.0  72d  77
2024 09 07 06  01 55 32.571   +19 16 15.50  .03424 1.0304 130.8 17.0  72d  77
2024 09 07 07  01 57 43.992   +19 10 06.61  .03405 1.0301 130.4 17.0  72d  77
2024 09 07 08  01 59 56.687   +19 03 47.65  .03386 1.0298 130.0 17.0  72d  77
2024 09 07 09  02 02 10.649   +18 57 18.47  .03368 1.0295 129.6 17.0  72d  77
2024 09 07 10  02 04 25.870   +18 50 38.91  .03350 1.0292 129.2 17.0  72d  77
2024 09 07 11  02 06 42.343   +18 43 48.84  .03332 1.0289 128.8 17.0  72d  77
2024 09 07 12  02 09 00.057   +18 36 48.11  .03315 1.0286 128.4 17.0  72d  77
2024 09 07 13  02 11 19.002   +18 29 36.59  .03298 1.0283 128.0 17.0  72d  77
2024 09 07 14  02 13 39.166   +18 22 14.16  .03281 1.0280 127.6 17.0  72d  77
2024 09 07 15  02 16 00.535   +18 14 40.69  .03265 1.0277 127.2 17.0  72d  77
2024 09 07 16  02 18 23.094   +18 06 56.07  .03249 1.0274 126.7 17.0  72d  77
2024 09 07 17  02 20 46.828   +17 59 00.20  .03233 1.0271 126.3 17.0  72d  77
2024 09 07 18  02 23 11.720   +17 50 52.98  .03218 1.0268 125.8 17.0  72d  77
2024 09 07 19  02 25 37.752   +17 42 34.32  .03203 1.0265 125.4 17.0  72d  77
2024 09 07 20  02 28 04.903   +17 34 04.15  .03188 1.0262 124.9 17.0  72d  77
2024 09 07 21  02 30 33.153   +17 25 22.38  .03174 1.0259 124.5 17.0  72d  77
2024 09 07 22  02 33 02.479   +17 16 28.97  .03160 1.0256 124.0 17.0  73d  77
2024 09 07 23  02 35 32.858   +17 07 23.87  .03146 1.0253 123.5 17.0  73d  77
2024 09 08 00  02 38 04.264   +16 58 07.04  .03133 1.0250 123.1 17.1  73d  77
2024 09 08 01  02 40 36.672   +16 48 38.45  .03120 1.0246 122.6 17.1  73d  77
2024 09 08 02  02 43 10.053   +16 38 58.11  .03108 1.0243 122.1 17.1  73d  77
2024 09 08 03  02 45 44.379   +16 29 06.00  .03096 1.0240 121.6 17.1  73d  77
2024 09 08 04  02 48 19.619   +16 19 02.15  .03084 1.0237 121.1 17.1  73d  78
2024 09 08 05  02 50 55.741   +16 08 46.58  .03073 1.0234 120.6 17.1  73d  78
2024 09 08 06  02 53 32.714   +15 58 19.33  .03062 1.0231 120.1 17.1  73d  78
2024 09 08 07  02 56 10.502   +15 47 40.48  .03051 1.0228 119.6 17.1  73d  78
2024 09 08 08  02 58 49.070   +15 36 50.08  .03041 1.0225 119.0 17.1  73d  78
2024 09 08 09  03 01 28.382   +15 25 48.23  .03032 1.0222 118.5 17.1  73d  78
2024 09 08 10  03 04 08.400   +15 14 35.03  .03022 1.0219 118.0 17.1  73d  78
2024 09 08 11  03 06 49.086   +15 03 10.61  .03013 1.0216 117.4 17.1  73d  78